When you browse on this site, cookies collect data to enhance your experience and personalize the content and advertising you see.
Visit our Privacy Policy to learn more. By continuing to use the site, you agree to this use of cookies and data.
  • In Hungary
  • List of Countries
  • For 7 days
  • Water Temperature
  • Weather Map
  • News
  • Weather Widgets
  • user-avatar
    Login

    Hourly Weather Ryazankin

    Today, 13 October, Sunday

    Time Temperature Precipitation Wind Pressure Humidity
    00:00 +11°C° 0 mm 3 mps 762 mmHg 72%
    01:00 +11°C° 0 mm 4 mps 762 mmHg 73%
    02:00 +10°C° 0 mm 4 mps 762 mmHg 74%
    03:00 +10°C° 0 mm 4 mps 762 mmHg 77%
    04:00 +10°C° 0 mm 4 mps 762 mmHg 77%
    05:00 +10°C° 0 mm 4 mps 761 mmHg 78%
    06:00 +9°C° 0 mm 5 mps 761 mmHg 78%
    07:00 +10°C° 0 mm 6 mps 761 mmHg 73%
    08:00 +11°C° 0 mm 6 mps 761 mmHg 68%
    09:00 +13°C° 0 mm 8 mps 761 mmHg 62%
    10:00 +15°C° 0 mm 8 mps 761 mmHg 59%
    11:00 +17°C° 0 mm 8 mps 761 mmHg 55%
    12:00 +18°C° 0 mm 8 mps 761 mmHg 52%
    13:00 +20°C° 0 mm 8 mps 761 mmHg 50%
    14:00 +21°C° 0 mm 8 mps 760 mmHg 49%
    15:00 +21°C° 0 mm 8 mps 760 mmHg 48%
    16:00 +20°C° 0 mm 7 mps 760 mmHg 52%
    17:00 +19°C° 0 mm 6 mps 760 mmHg 56%
    18:00 +16°C° 0 mm 5 mps 760 mmHg 60%
    19:00 +16°C° 0 mm 5 mps 760 mmHg 62%
    20:00 +15°C° 0 mm 5 mps 760 mmHg 64%
    21:00 +15°C° 0 mm 5 mps 761 mmHg 66%
    22:00 +14°C° 0 mm 5 mps 760 mmHg 68%
    23:00 +14°C° 0 mm 5 mps 760 mmHg 70%

    Tomorrow, 14 October, Monday

    Time Temperature Precipitation Wind Pressure Humidity
    00:00 +13°C° 0 mm 5 mps 760 mmHg 73%
    01:00 +13°C° 0 mm 4 mps 761 mmHg 76%
    02:00 +13°C° 0 mm 4 mps 761 mmHg 79%
    03:00 +12°C° 0 mm 3 mps 761 mmHg 82%
    04:00 +12°C° 0 mm 3 mps 761 mmHg 84%
    05:00 +12°C° 0 mm 3 mps 761 mmHg 86%
    06:00 +12°C° 0 mm 3 mps 761 mmHg 87%
    07:00 +13°C° 0 mm 3 mps 762 mmHg 81%
    08:00 +14°C° 0 mm 3 mps 762 mmHg 75%
    09:00 +17°C° 0 mm 3 mps 762 mmHg 69%
    10:00 +18°C° 0 mm 3 mps 762 mmHg 62%
    11:00 +20°C° 0 mm 3 mps 762 mmHg 56%
    12:00 +22°C° 0 mm 3 mps 762 mmHg 49%
    13:00 +22°C° 0 mm 3 mps 762 mmHg 47%
    14:00 +24°C° 0 mm 3 mps 762 mmHg 46%
    15:00 +24°C° 0 mm 3 mps 762 mmHg 45%
    16:00 +23°C° 0 mm 2 mps 761 mmHg 49%
    17:00 +21°C° 0 mm 2 mps 761 mmHg 53%
    18:00 +20°C° 0 mm 1 mps 761 mmHg 57%
    19:00 +19°C° 0 mm 2 mps 761 mmHg 59%
    20:00 +18°C° 0 mm 2 mps 761 mmHg 60%
    21:00 +18°C° 0 mm 2 mps 761 mmHg 61%
    22:00 +17°C° 0 mm 2 mps 761 mmHg 63%
    23:00 +17°C° 0 mm 2 mps 761 mmHg 64%

    Day after tomorrow, 15 October, Tuesday

    Time Temperature Precipitation Wind Pressure Humidity
    00:00 +16°C° 0 mm 2 mps 761 mmHg 65%
    01:00 +16°C° 0 mm 2 mps 761 mmHg 67%
    02:00 +15°C° 0 mm 2 mps 761 mmHg 69%
    03:00 +14°C° 0 mm 3 mps 761 mmHg 71%
    04:00 +13°C° 0 mm 3 mps 760 mmHg 71%
    05:00 +13°C° 0 mm 3 mps 760 mmHg 72%
    06:00 +13°C° 0 mm 3 mps 760 mmHg 73%
    07:00 +14°C° 0 mm 3 mps 760 mmHg 68%
    08:00 +16°C° 0 mm 3 mps 760 mmHg 63%
    09:00 +17°C° 0 mm 3 mps 760 mmHg 58%
    10:00 +19°C° 0 mm 3 mps 760 mmHg 52%
    11:00 +21°C° 0 mm 3 mps 760 mmHg 45%
    12:00 +22°C° 0 mm 4 mps 759 mmHg 39%
    13:00 +23°C° 0 mm 4 mps 759 mmHg 38%
    14:00 +23°C° 0 mm 4 mps 759 mmHg 38%
    15:00 +23°C° 0 mm 4 mps 758 mmHg 37%
    16:00 +22°C° 0 mm 3 mps 758 mmHg 43%
    17:00 +20°C° 0 mm 3 mps 758 mmHg 48%
    18:00 +19°C° 0 mm 2 mps 758 mmHg 54%
    19:00 +18°C° 0 mm 2 mps 758 mmHg 56%
    20:00 +18°C° 0 mm 2 mps 759 mmHg 58%
    21:00 +17°C° 0 mm 2 mps 759 mmHg 61%
    22:00 +17°C° 0 mm 2 mps 759 mmHg 62%
    23:00 +16°C° 0 mm 2 mps 759 mmHg 64%

    16 October, Wednesday

    Time Temperature Precipitation Wind Pressure Humidity
    00:00 +16°C° 0 mm 2 mps 759 mmHg 66%
    01:00 +15°C° 0 mm 2 mps 760 mmHg 69%
    02:00 +15°C° 0 mm 2 mps 760 mmHg 73%
    03:00 +14°C° 0 mm 2 mps 760 mmHg 76%
    04:00 +14°C° 0 mm 2 mps 760 mmHg 79%
    05:00 +12°C° 0 mm 3 mps 760 mmHg 83%
    06:00 +12°C° 0 mm 3 mps 760 mmHg 86%
    07:00 +13°C° 0 mm 3 mps 760 mmHg 81%
    08:00 +14°C° 0 mm 4 mps 761 mmHg 76%
    09:00 +15°C° 0 mm 4 mps 761 mmHg 71%
    10:00 +17°C° 0 mm 4 mps 761 mmHg 66%
    11:00 +19°C° 0 mm 4 mps 761 mmHg 61%
    12:00 +20°C° 0 mm 4 mps 761 mmHg 56%
    13:00 +20°C° 0 mm 4 mps 761 mmHg 55%
    14:00 +20°C° 0 mm 4 mps 761 mmHg 54%
    15:00 +20°C° 0 mm 4 mps 761 mmHg 53%
    16:00 +19°C° 0 mm 3 mps 761 mmHg 57%
    17:00 +17°C° 0 mm 3 mps 761 mmHg 61%
    18:00 +16°C° 0 mm 3 mps 761 mmHg 65%
    19:00 +14°C° 0 mm 3 mps 761 mmHg 66%
    20:00 +14°C° 0 mm 4 mps 762 mmHg 67%
    21:00 +13°C° 0 mm 4 mps 762 mmHg 68%
    22:00 +13°C° 0 mm 4 mps 762 mmHg 70%
    23:00 +12°C° 0 mm 4 mps 762 mmHg 71%

    17 October, Thursday

    Time Temperature Precipitation Wind Pressure Humidity
    00:00 +12°C° 0 mm 4 mps 762 mmHg 73%
    01:00 +11°C° 0 mm 4 mps 762 mmHg 74%
    02:00 +11°C° 0 mm 4 mps 762 mmHg 75%
    03:00 +11°C° 0 mm 4 mps 762 mmHg 76%
    04:00 +10°C° 0 mm 4 mps 762 mmHg 77%
    05:00 +10°C° 0 mm 4 mps 762 mmHg 77%
    06:00 +10°C° 0 mm 4 mps 762 mmHg 78%
    07:00 +11°C° 0 mm 4 mps 762 mmHg 73%
    08:00 +12°C° 0 mm 4 mps 762 mmHg 68%
    09:00 +13°C° 0 mm 4 mps 762 mmHg 63%
    10:00 +15°C° 0 mm 4 mps 762 mmHg 59%
    11:00 +18°C° 0 mm 4 mps 761 mmHg 55%
    12:00 +19°C° 0 mm 4 mps 761 mmHg 51%
    13:00 +20°C° 0 mm 4 mps 761 mmHg 50%
    14:00 +20°C° 0 mm 3 mps 760 mmHg 49%
    15:00 +21°C° 0 mm 3 mps 760 mmHg 48%
    16:00 +19°C° 0 mm 3 mps 760 mmHg 54%
    17:00 +18°C° 0 mm 3 mps 759 mmHg 60%
    18:00 +16°C° 0 mm 3 mps 759 mmHg 66%
    19:00 +16°C° 0 mm 3 mps 759 mmHg 70%
    20:00 +14°C° 0 mm 3 mps 759 mmHg 73%
    21:00 +14°C° 0 mm 3 mps 759 mmHg 76%
    22:00 +13°C° 0 mm 3 mps 759 mmHg 77%
    23:00 +14°C° 0 mm 2 mps 759 mmHg 78%

    18 October, Friday

    Time Temperature Precipitation Wind Pressure Humidity
    00:00 +14°C° 0 mm 2 mps 758 mmHg 79%
    01:00 +13°C° 0 mm 2 mps 758 mmHg 80%
    02:00 +13°C° 0 mm 2 mps 758 mmHg 81%
    03:00 +13°C° 0 mm 1 mps 758 mmHg 82%
    04:00 +12°C° 0 mm 1 mps 758 mmHg 83%
    05:00 +12°C° 0 mm 1 mps 758 mmHg 84%
    06:00 +12°C° 0 mm 1 mps 758 mmHg 85%
    07:00 +13°C° 0 mm 1 mps 758 mmHg 79%
    08:00 +14°C° 0 mm 1 mps 758 mmHg 72%
    09:00 +16°C° 0 mm 1 mps 758 mmHg 66%
    10:00 +18°C° 0 mm 1 mps 757 mmHg 60%
    11:00 +20°C° 0 mm 1 mps 757 mmHg 53%
    12:00 +21°C° 0 mm 1 mps 757 mmHg 47%
    13:00 +22°C° 0 mm 1 mps 757 mmHg 45%
    14:00 +22°C° 0 mm 1 mps 757 mmHg 42%
    15:00 +23°C° 0 mm 1 mps 757 mmHg 40%
    16:00 +22°C° 0 mm 1 mps 757 mmHg 45%
    17:00 +20°C° 0 mm 1 mps 757 mmHg 49%
    18:00 +19°C° 0 mm 1 mps 757 mmHg 54%
    19:00 +18°C° 0 mm 1 mps 757 mmHg 56%
    20:00 +16°C° 0 mm 2 mps 757 mmHg 58%
    21:00 +16°C° 0 mm 2 mps 757 mmHg 60%
    22:00 +14°C° 0 mm 3 mps 758 mmHg 67%
    23:00 +14°C° 0 mm 3 mps 758 mmHg 73%
    Show more